Location: Newark
(35.2672°N, 80.7344°W)
Time: 23:07:19
(UTC+00:00)

Vanguard 2 Rocket - Pass Details

Date: 23 January 2020
Orbit: 554 x 3327 km, 32.9° (Epoch: 19 February)

Event Time Altitude Azimuth Distance (km) Brightness Sun altitude
Rises 13:38:15 0° 272° (W) 3,419 9.3 11.7°
Reaches altitude 10° 13:40:18 10° 270° (W) 2,695 8.9 12.0°
Maximum altitude 13:46:48 72° 188° (S) 1,434 8.3 13.1°
Drops below altitude 10° 13:58:42 10° 107° (ESE) 4,722 12.1 15.1°
Sets 14:03:27 0° 105° (ESE) 6,166 12.4 15.8°
